STARLINK-3850, 52342

Orbit data source: Space-Track

STARLINK-3850, 52342 is a payload satellite owned by SpaceX/Seattle (US) in LEO that was launched on Fri, 29 Apr 2022 UTC via an FALCON 9 launch vehicle from the Air Force Eastern Test Range (AFETR). Payload-class satellites include a variety of spacecraft equipped with specific instruments for various scientific and technological missions. These include communications satellites like Starlink; space stations such as the ISS; scientific satellites like the Hubble; Earth observation satellites from companies like Planet Labs, Umbra, and HawkEye 360; GPS; miniature CubeSats for education and research; and military/defense satellites.

Loading next visibility...
Identifier
52342, 2022-045M
Orbit
LEO
Country
Flag of USUS
Related business
Manufacturer
SpaceX/Seattle
Mission
Operational Commercial Communications
Bus & Motor
STARLINK, Unknown motor
Mass
297 kg wet, ~275 kg dry
Launch date (UTC)
2022-04-29 (4 years ago)
Launch vehicle
FALCON 9
Launch site
Air Force Eastern Test Range (AFETR)
Object type
Payload
Rocket body
Debris
Shape & HBR
Box + 1 Pan, 10.1 m
Radar Cross Section
11.087 m², Large (>1 m²)

Expand to show TLE details & history
Last TLE update: 3 days ago

TLE from 3 days ago
0 STARLINK-3850
1 52342U 22045M   26170.53672698  .00000792  00000-0  67868-4 0  9998
2 52342  53.1613 101.9198 0001356  89.8703 270.2444 15.08838904231157
Epoch: 2026-06-19T12:52Z
TLE epoch observation values (Epoch: 2026-06-19T12:52:53.211Z)
Latitude
0.00001°
Longitude
0.93381°
Altitude
540.634 km
Speed
7.593 km/s
True Right ascension
06h 47m 40s
True Declination
0° 00' 00"
Sunlit
Object was in daylight at epoch
Visualization orbit readout
Latitude
Unknown
Longitude
Unknown
Altitude
Unknown
Speed
Unknown
Apparent Right ascension
Unknown
Apparent Declination
Unknown
Sunlit
N/A
Visualization observer readout
Local Sidereal Time
21:50:05
Azimuth
Unknown
Elevation
Unknown
Doppler factor
Unknown
Orbital elements
Apogee altitude
540.939 km
Perigee altitude
539.063 km
Semi-major axis
6,918.138 km
Eccentricity
0.00014
Inclination
53.1613°
RAAN
101.9198°
Arg. of periapsis
89.8703°
True anomaly
270.22886°
Mean anomaly
270.2444°
Eccentric anomaly
270.23663°
Mean motion
3.77189 °/min
Orbital period
95.44 mins
BSTAR
0.000067868
Loading maneuver chart data...
Computing Atmospheric mass density...

Documentation

Showing up to 5 results
|